OPS 4682 DEB, 38413

Orbit data source: Space-Track

OPS 4682 DEB, 38413 is space debris in LEO originally from a launch on Sat, 03 Apr 1965 UTC launched from the Air Force Western Test Range (AFWTR). Debris objects in space refer to the collection of defunct objects orbiting the Earth. Examples of debris include non-operational satellites, rocket bodies, and fragments generated from explosions, collisions, or faulty payload assembly.

Loading next visibility...
Identifier
38413, 1965-027DS
Orbit
LEO
Country
Flag of USUS
Related business
Manufacturer
Unknown
Mission
Spacecraft
Bus & Motor
Unknown
Mass
Unknown
Launch date (UTC)
1965-04-03 (61 years ago)
Launch vehicle
Unknown
Launch site
Air Force Western Test Range (AFWTR)
Object type
Payload
Rocket body
Debris
Shape & HBR
Unknown shape, 0.1 m
Radar Cross Section
Medium (>0.1 m² and <1 m²)

Expand to show TLE details & history
Last TLE update: 6 days ago

TLE from 6 days ago
0 OPS 4682 DEB
1 38413U 65027DS  26169.78658731  .00000694  00000-0  22789-2 0  9997
2 38413  90.2395  10.2971 0027511 286.4188  73.3911 13.00032261125484
Epoch: 2026-06-18T18:52Z
TLE epoch observation values (Epoch: 2026-06-18T18:52:41.143Z)
Latitude
0.00001°
Longitude
-179.89924°
Altitude
1,258.888 km
Speed
7.229 km/s
True Right ascension
00h 41m 11s
True Declination
0° 00' 00"
Sunlit
Object was in daylight at epoch
Visualization orbit readout
Latitude
Unknown
Longitude
Unknown
Altitude
Unknown
Speed
Unknown
Apparent Right ascension
Unknown
Apparent Declination
Unknown
Sunlit
N/A
Visualization observer readout
Local Sidereal Time
21:07:10
Azimuth
Unknown
Elevation
Unknown
Doppler factor
Unknown
Orbital elements
Apogee altitude
1,280.098 km
Perigee altitude
1,238.076 km
Semi-major axis
7,637.224 km
Eccentricity
0.00275
Inclination
90.2395°
RAAN
10.2971°
Arg. of periapsis
286.4188°
True anomaly
73.6935°
Mean anomaly
73.3911°
Eccentric anomaly
73.54227°
Mean motion
3.25192 °/min
Orbital period
110.7 mins
BSTAR
0.0022789
Loading maneuver chart data...
Computing Atmospheric mass density...
Loading historical data...
Loading historical data...
Loading historical data...
Loading historical data...
Loading historical data...
Loading historical data...
Loading historical data...

Documentation

Showing up to 5 results
|